Temp
8 8 9 9 10 10 11 12 12 12 13 13 14 15 15 15 16 16 16 16 16 15 15 15 14 14 14 13 13 12 12 12 12 11 11 11 11 11 11 12 12 12 12
8 8 8 8 9 9 10 11 11 12 12 12 13 13 15 14 15 15 15 16 16 15 15 15 14 15 14 14 13 13 12 12 12 12 11 11 11 11 11 11 11 12 12
8 8 8 8 8 9 9 10 11 12 12 12 12 12 13 13 14 15 14 15 15 15 15 15 15 14 14 14 14 13 13 13 13 13 12 11 11 11 11 11 11 11 12
8 8 8 8 8 9 9 9 10 11 12 12 11 12 12 13 13 14 14 14 14 14 14 14 14 14 15 14 14 14 13 13 13 12 12 12 12 12 12 11 11 11 11
7 8 8 8 8 9 9 9 9 10 12 12 12 12 12 12 12 13 13 13 14 13 14 14 14 14 13 13 13 13 13 13 13 13 12 12 12 12 12 12 11 11 11
6 7 7 7 8 8 8 8 8 10 12 12 11 12 11 12 12 12 12 13 13 13 13 13 13 13 13 12 12 12 13 13 13 13 12 13 13 12 13 12 12 12 11
7 7 6 7 7 7 7 8 8 10 11 12 10 10 10 11 11 11 11 11 12 12 12 12 12 12 12 12 12 12 13 12 12 12 12 13 12 12 13 13 12 12 12
7 7 7 6 6 6 7 7 8 9 9 11 11 10 11 10 10 10 10 10 10 11 11 11 11 11 11 11 10 11 11 11 11 12 12 13 12 13 13 13 13 13 12
7 6 6 6 6 6 6 6 7 8 7 8 9 9 8 10 9 10 10 9 9 10 10 10 9 9 9 9 9 10 9 10 10 11 12 12 12 13 13 13 13 13 13
6 6 6 7 6 6 6 5 6 7 7 7 7 7 7 8 8 9 9 9 9 9 9 8 8 8 8 8 9 9 9 8 9 10 11 11 11 11 11 12 12 13 13
6 6 6 6 7 7 6 6 6 6 6 7 7 6 7 6 7 7 6 7 8 7 8 8 8 8 8 8 9 9 9 10 10 8 9 10 10 10 10 10 11 11 11
6 5 5 5 5 6 6 6 5 5 5 5 5 6 6 5 4 5 5 4 5 7 7 7 7 7 7 7 7 9 8 8 9 7 8 8 9 10 10 10 10 10 10
5 5 5 5 5 5 5 4 5 5 4 4 4 4 4 4 4 4 4 3 3 6 6 5 5 6 6 6 6 6 6 6 5 6 6 6 7 9 10 9 9 10 10
6 5 5 5 5 5 5 5 4 4 4 4 3 3 3 3 3 3 3 2 1 3 5 5 5 5 4 4 4 4 5 5 4 4 4 6 7 7 7 8 9 8 9
5 5 5 5 4 4 4 4 4 4 4 3 3 3 3 2 3 2 2 2 2 1 1 4 5 4 4 3 3 4 4 4 4 4 5 5 5 5 4 6 7 7 7
5 6 5 5 4 4 4 4 4 3 3 3 3 3 3 2 2 3 3 3 2 2 0 2 3 2 3 3 3 4 4 5 5 6 4 3 3 5 5 7 7 7 7
6 5 5 5 5 4 4 3 3 3 3 3 3 3 3 2 2 2 2 2 1 1 0 1 2 2 2 3 3 4 4 5 5 6 3 2 4 5 5 6 6 5 6
5 5 5 5 4 4 4 4 4 3 3 3 3 2 2 2 2 2 2 1 1 1 0 -0 1 2 2 2 2 2 3 4 5 5 4 4 5 6 6 6 5 5 5
5 4 4 4 4 4 4 4 3 3 3 3 3 3 3 2 2 2 1 1 1 1 1 0 0 1 1 1 1 2 2 3 4 3 4 4 5 5 6 5 5 5 5
5 4 4 4 4 4 3 3 3 3 3 3 3 2 2 2 2 1 1 1 0 0 0 -0 -0 -0 0 1 1 1 1 2 3 2 3 3 3 3 5 5 5 6 5
5 4 4 3 3 3 3 3 3 2 2 2 2 2 2 2 1 1 1 1 0 0 -0 -1 -1 -1 -1 -1 -2 -1 -1 1 3 2 2 4 3 2 2 3 4 4 3
4 4 3 3 3 3 3 3 2 2 2 2 2 1 1 1 1 1 0 0 -0 -0 -1 -2 -2 -2 -1 -1 -1 -2 -2 -3 -3 1 -1 3 2 2 2 3 3 3 1
3 3 3 3 3 3 3 2 1 2 2 1 1 1 1 0 -0 -0 0 -0 -1 -1 -2 -2 -2 -2 -2 -2 -2 -2 -2 -3 -3 -2 -2 -2 2 -0 1 2 2 2 2
3 3 2 2 2 3 2 1 -0 -0 1 1 1 1 0 0 -0 -1 -1 -1 -1 -1 -1 -2 -2 -2 -2 -2 -2 -3 -3 -3 -3 -2 -3 -4 -1 -1 -1 1 2 1 1
2 2 2 2 2 2 2 1 -1 -1 -1 -0 0 -0 -0 -1 -1 -1 -2 -2 -2 -1 -2 -2 -2 -2 -2 -2 -2 -3 -3 -3 -4 -3 -3 -4 -3 -3 -1 0 -0 -1 -1
1 1 1 2 2 2 2 1 -1 -1 -1 -1 -1 -1 -2 -2 -1 -2 -2 -2 -3 -2 -2 -2 -3 -3 -3 -3 -3 -3 -3 -3 -4 -4 -4 -4 -4 -5 -6 -3 -3 -4 -4
Height
863 862 861 859 857 856 856 856 855 855 854 853 853 854 855 856 858 861 861 863 865 866 868 870 871 871 872 873 873 872 871 871 871 870 869 868 867 866 865 864 862 859 858
863 863 861 861 858 857 857 856 856 856 855 855 854 854 855 856 858 860 862 863 866 867 868 870 871 873 873 874 874 873 873 872 871 870 870 869 868 867 866 864 863 862 860
863 864 862 860 859 858 857 856 856 857 857 857 856 855 855 857 858 860 862 864 866 868 869 870 872 874 874 874 874 874 874 873 872 870 869 869 868 867 867 866 865 863 862
864 863 862 861 860 859 858 857 856 858 859 858 858 858 858 859 860 860 862 866 866 869 871 872 872 874 875 875 874 874 874 873 872 871 870 869 868 866 865 864 863 862 862
866 864 863 862 861 860 858 859 858 859 859 860 860 862 861 861 861 863 864 865 867 869 870 873 874 875 875 877 877 875 875 874 873 872 871 869 868 866 865 864 863 861 860
866 866 865 864 863 861 860 860 859 860 862 862 863 864 864 864 864 865 866 866 867 869 871 873 875 874 874 875 876 874 875 875 874 872 872 871 869 867 865 864 862 861 859
867 867 866 866 865 863 862 861 861 862 863 865 866 867 868 868 868 869 869 869 869 870 873 874 875 875 875 874 875 876 873 874 874 871 871 871 868 866 865 863 862 861 859
869 868 867 867 866 866 865 864 863 864 865 865 866 867 870 874 873 875 873 873 873 872 873 876 874 876 876 875 875 875 872 874 873 872 870 868 867 865 863 862 861 858 858
870 870 869 868 868 868 868 867 867 866 865 866 867 866 871 874 876 880 878 877 878 875 875 877 875 875 876 877 877 875 874 872 871 871 870 866 865 862 861 860 859 857 855
872 872 871 870 869 869 869 868 867 866 866 867 869 869 869 872 876 880 880 882 880 879 880 881 878 876 878 879 877 876 874 872 872 871 869 866 863 860 860 857 857 855 853
873 873 872 872 871 870 869 869 869 869 869 869 870 871 872 873 875 877 882 882 882 883 884 882 880 880 880 878 876 876 875 873 871 871 869 866 862 860 860 858 857 854 852
873 873 873 873 873 872 871 871 871 871 871 871 872 873 873 875 877 879 881 884 883 885 886 883 882 881 881 878 877 875 873 872 871 870 869 865 862 860 858 856 855 852 850
872 873 874 874 874 874 873 874 874 873 874 875 876 876 876 877 878 879 880 883 884 886 886 884 884 884 881 879 878 875 873 871 870 870 867 864 863 860 858 856 853 851 848
871 873 874 875 875 875 875 875 876 875 876 875 876 878 878 879 880 880 880 881 885 885 885 885 885 884 882 880 877 875 873 870 869 867 865 863 860 858 857 854 852 850 846
870 872 873 875 876 876 876 877 877 876 878 878 877 878 879 879 880 881 881 881 882 885 886 885 885 885 882 880 877 875 872 870 869 867 864 863 862 859 855 853 850 847 844
868 870 872 873 875 875 876 877 878 878 879 879 879 879 880 881 881 882 882 881 882 882 886 886 885 884 882 880 878 876 874 872 869 866 863 863 862 858 853 850 847 845 843
865 868 870 872 873 874 875 877 878 878 879 880 880 881 881 881 882 882 883 883 883 884 885 886 885 884 882 879 877 875 872 870 867 863 861 861 859 856 852 848 845 844 841
862 865 868 869 871 873 874 875 876 878 879 879 880 881 882 882 882 883 882 882 883 883 884 884 883 881 880 878 875 873 871 869 866 863 862 861 858 855 851 848 845 842 839
859 863 865 866 868 870 871 873 875 877 878 879 880 881 881 882 882 882 882 882 883 884 884 884 883 881 879 877 873 871 869 866 864 863 861 860 857 854 850 847 844 841 837
855 858 860 863 865 867 869 871 873 875 876 878 879 880 880 881 881 881 881 882 882 883 883 883 882 881 879 876 873 869 864 863 861 860 859 857 854 852 850 846 844 838 833
848 853 856 859 861 863 865 867 870 872 874 875 877 878 878 879 879 879 880 880 880 881 881 881 881 879 877 875 873 871 867 863 860 857 854 851 849 847 845 844 843 837 833
842 847 850 853 855 857 861 863 865 867 870 871 873 874 875 876 876 877 878 878 878 878 878 878 878 878 876 875 873 871 869 866 863 860 853 847 847 844 842 840 839 835 834
836 839 843 847 849 852 856 859 861 863 865 866 868 870 871 872 873 874 875 875 875 875 876 876 875 876 875 875 873 870 870 870 868 861 856 848 846 841 840 838 836 833 831
829 833 836 840 844 847 851 854 857 858 860 862 863 864 866 867 869 870 871 871 872 873 874 874 873 873 872 872 871 870 869 866 864 861 860 851 846 838 835 834 834 833 829
822 825 829 834 836 839 844 848 851 852 853 855 856 859 860 862 864 866 866 867 868 868 869 870 870 870 870 869 870 868 866 864 860 859 858 856 848 841 833 828 828 828 828
814 818 821 824 828 832 837 841 844 845 846 847 849 851 853 854 858 859 861 862 862 863 864 865 865 866 867 867 866 866 864 862 861 857 857 856 852 849 838 826 824 823 821
Wind_Speed
15 14 15 14 13 11 10 11 12 15 15 15 10 6 5 11 16 15 16 14 13 15 12 10 10 10 11 12 11 10 10 9 10 10 9 9 9 9 10 10 11 11 12
13 13 14 14 14 13 11 10 10 11 15 14 15 8 7 8 14 15 16 13 12 14 12 10 10 9 11 9 10 12 10 9 9 8 7 7 8 8 9 9 10 11 11
11 12 13 14 15 13 10 10 9 9 13 15 16 13 10 10 12 14 16 15 12 14 13 12 9 10 8 7 8 7 7 9 8 10 13 8 7 8 8 9 10 10 11
10 11 13 14 14 13 13 13 12 10 14 17 17 16 14 12 13 15 15 14 16 13 11 11 12 10 11 9 7 7 6 4 4 4 7 10 12 12 9 6 6 7 9
9 11 12 13 13 13 14 13 15 15 18 18 14 15 16 16 13 15 18 14 16 14 13 11 11 10 9 8 8 8 9 9 9 7 6 5 6 8 8 9 8 6 6
10 10 11 12 13 15 14 15 18 19 20 18 18 18 19 18 16 15 15 19 19 16 14 13 9 8 7 4 7 9 9 8 8 10 10 10 9 9 8 7 8 8 7
10 11 12 11 13 16 16 15 18 17 18 22 20 24 27 25 24 22 18 16 16 14 12 10 9 9 7 5 4 5 6 11 12 9 8 9 11 13 11 10 11 11 9
9 10 11 12 13 14 16 15 16 17 16 10 8 6 2 9 22 21 22 22 20 20 18 12 10 11 11 10 9 7 8 13 16 13 15 13 11 10 10 12 14 13 12
9 10 11 12 12 13 16 16 14 15 14 15 7 5 3 2 1 9 18 21 20 21 20 17 17 17 16 16 15 14 14 14 17 20 18 16 16 14 13 12 12 13 14
8 9 9 10 12 13 14 15 14 13 14 14 14 18 13 6 2 2 6 15 19 18 17 17 18 18 18 17 16 16 16 17 17 19 22 23 21 21 20 19 16 13 11
8 8 8 9 11 12 14 13 13 15 14 12 12 7 11 13 10 5 0 6 11 16 13 15 17 17 18 18 17 16 15 15 17 18 20 21 20 21 20 19 19 20 17
7 7 8 9 10 11 12 12 13 13 14 14 11 8 7 3 3 4 3 3 3 10 10 13 15 17 18 18 17 15 15 14 15 17 19 21 20 21 20 21 20 19 19
9 8 7 8 9 10 11 11 12 13 13 13 13 14 11 11 8 8 6 3 3 4 4 9 12 14 18 16 16 15 14 14 18 17 18 19 18 19 20 20 20 20 20
11 10 9 8 8 9 10 11 11 12 12 12 12 12 12 12 11 10 5 4 2 4 5 5 5 13 17 18 17 17 14 15 17 17 18 17 16 18 19 20 21 21 22
13 12 10 9 9 9 9 9 10 11 11 11 11 10 10 9 8 8 7 6 3 2 1 1 5 14 17 17 18 18 17 18 17 17 18 17 16 19 20 19 20 21 23
16 14 13 11 10 9 9 8 9 9 9 10 9 9 9 8 7 6 6 6 7 4 1 1 4 14 15 16 17 17 17 16 20 18 15 16 16 23 22 19 19 20 22
18 17 15 13 12 11 10 9 9 8 8 9 8 8 8 7 6 6 5 5 5 3 2 2 6 11 14 15 15 16 16 18 22 19 13 12 15 30 24 21 19 19 20
21 20 18 16 14 13 11 11 10 9 8 8 7 7 6 6 5 5 4 4 3 2 1 3 7 13 15 15 17 19 19 21 24 12 13 15 29 22 24 23 24 20 20
24 23 21 20 18 16 14 13 11 10 9 8 7 7 6 6 5 4 3 3 2 1 3 5 7 12 15 17 19 20 22 26 24 9 13 26 23 25 25 25 21 24 23
28 26 25 22 20 18 16 15 14 13 12 10 9 8 7 6 6 5 4 3 3 3 4 5 7 9 11 17 17 25 30 31 28 9 16 32 28 27 23 23 28 31 29
31 28 26 24 22 21 20 18 17 16 14 13 12 11 10 9 9 8 7 7 6 6 6 6 7 8 11 15 18 20 25 29 24 14 34 34 32 30 26 21 32 24 22
33 31 30 28 27 26 23 21 20 19 18 17 16 14 13 12 11 10 10 10 9 8 7 7 8 9 11 11 14 19 22 20 12 12 39 39 31 30 30 31 34 15 17
36 35 34 32 31 29 26 24 22 23 22 21 19 17 16 15 13 13 12 11 11 10 10 11 13 12 14 12 17 17 18 18 17 30 26 22 31 33 31 37 29 11 18
38 38 37 34 32 31 28 25 22 23 23 23 22 21 19 18 18 16 14 15 15 15 13 13 16 16 15 15 13 15 18 20 24 22 22 9 26 33 40 39 14 15 17
38 39 38 35 35 34 30 28 24 27 28 28 26 24 22 21 19 17 16 17 18 19 16 15 14 15 14 12 12 16 19 20 16 16 18 16 14 35 41 32 22 11 30
40 38 37 38 36 36 33 31 27 30 32 32 30 27 25 24 22 19 19 21 22 22 18 16 15 16 18 19 18 17 18 19 16 10 3 16 19 17 16 19 24 36 31
Wind_Direction
60 54 54 58 62 67 67 63 63 64 61 59 64 148 130 101 149 139 137 136 117 113 108 109 109 93 100 84 78 74 74 69 61 54 53 50 46 42 39 37 41 43 40
60 53 57 57 59 61 68 70 61 66 69 62 48 74 130 113 134 142 138 139 125 121 107 115 109 94 91 91 84 59 63 62 59 50 35 37 35 32 29 30 29 30 31
61 56 59 58 53 61 73 77 84 91 87 70 49 67 84 116 113 154 145 136 127 124 111 104 107 99 86 100 90 84 83 59 42 29 38 37 28 24 16 15 17 19 20
63 62 64 60 55 63 79 70 72 82 86 68 59 67 71 95 99 105 147 143 137 124 117 105 98 91 69 63 62 49 29 27 26 42 32 35 29 24 13 5 12 15 15
66 66 67 64 61 67 81 75 65 95 89 80 80 81 78 82 95 90 110 140 141 134 126 117 110 98 84 63 60 59 38 23 22 10 353 343 352 2 7 9 352 348 355
71 68 74 68 66 72 85 79 80 94 92 92 97 91 80 77 82 88 89 105 129 130 126 127 124 121 109 92 51 53 27 24 13 358 346 345 342 323 324 333 344 350 342
72 71 74 73 68 69 75 83 94 106 108 107 96 81 77 79 76 76 80 83 95 109 117 113 97 89 96 93 46 2 353 353 352 359 348 345 333 324 325 317 307 312 316
78 78 79 78 76 77 79 87 99 100 86 112 120 121 103 66 66 70 74 69 71 75 83 87 86 67 57 49 34 13 11 13 360 337 333 330 325 329 316 316 318 310 295
82 81 82 82 84 81 78 78 91 106 104 82 87 107 100 103 94 63 68 66 66 71 75 77 80 77 62 52 45 42 41 41 22 11 360 348 340 329 317 316 314 316 323
92 89 87 87 86 88 87 80 80 95 115 108 86 81 84 121 136 136 73 67 62 66 71 72 68 58 46 36 30 25 14 12 8 11 6 11 8 360 354 355 346 335 329
105 97 95 92 93 91 89 89 86 85 94 105 114 109 88 82 82 95 126 9 74 67 64 59 52 42 31 23 18 15 4 2 1 2 5 3 1 3 358 352 348 346 339
131 119 107 102 99 99 98 99 97 93 91 96 106 112 134 125 93 96 104 70 66 70 75 63 44 27 12 10 6 357 2 357 356 1 5 4 352 352 344 346 347 347 346
159 145 134 121 117 110 108 108 111 111 111 104 99 96 96 100 115 111 106 106 93 80 83 47 36 24 14 15 14 17 17 14 12 11 7 1 353 347 348 350 348 341 338
170 163 151 141 130 124 120 119 116 110 114 113 108 101 97 93 94 90 107 122 75 41 72 39 355 9 16 20 22 20 22 23 13 10 4 358 352 354 353 352 350 348 345
182 175 167 157 148 140 131 127 124 121 123 121 118 118 111 106 100 96 92 84 117 127 332 2 12 1 12 19 24 23 22 21 15 2 360 5 14 6 354 349 347 349 347
192 187 181 174 164 155 148 141 136 130 131 125 125 127 122 118 116 116 98 87 78 91 115 347 340 358 11 18 20 18 15 19 12 3 2 16 6 1 351 345 338 334 334
198 197 193 187 179 172 169 163 156 150 150 144 141 137 133 133 130 125 126 117 114 103 153 288 316 358 6 7 10 11 10 10 5 358 24 12 357 352 357 359 350 343 341
205 204 201 197 192 188 185 180 176 175 174 167 163 159 153 153 150 140 137 130 122 96 356 301 322 348 357 1 359 0 5 7 6 42 28 26 355 2 360 360 356 356 356
210 208 209 207 203 201 199 196 196 194 193 192 190 190 186 188 185 177 166 161 160 245 316 310 326 336 344 355 354 356 0 360 11 20 13 356 358 3 2 3 15 5 354
213 214 215 214 212 211 210 209 208 207 209 210 211 213 216 218 221 218 220 225 248 269 294 307 314 327 343 348 351 356 353 353 359 356 346 350 357 358 5 2 359 345 339
218 219 219 218 218 219 219 216 217 218 219 221 223 225 230 233 235 235 243 244 252 269 286 303 317 325 338 351 357 347 345 344 354 341 338 344 347 350 354 358 357 342 351
221 221 222 223 222 224 225 226 225 224 226 228 230 232 235 237 241 243 252 248 255 263 273 286 294 303 312 324 330 340 343 351 341 339 340 332 340 340 343 345 351 344 354
222 223 225 226 227 230 231 230 230 231 231 232 234 236 238 243 245 252 252 247 253 254 258 273 279 289 303 316 322 328 333 329 317 326 336 323 333 332 336 337 345 336 336
226 225 229 230 233 236 234 231 227 234 237 236 237 236 238 241 244 248 249 255 256 261 263 260 266 280 288 302 312 319 317 315 315 328 338 296 328 326 327 331 341 324 317
229 230 232 234 236 239 236 233 225 230 237 241 240 237 239 242 244 243 250 258 262 265 266 267 268 275 282 284 289 302 309 317 319 319 328 332 329 327 323 326 329 311 319
234 236 237 239 242 243 241 238 226 232 237 241 242 237 237 241 245 242 240 249 256 265 273 274 268 263 269 275 282 288 297 294 297 321 351 334 323 350 325 312 313 321 328